Home > Weather > Rostov-on-Don > Past weeks

Flag for Russia Past Weather in Rostov-on-Don, Russia — Yesterday and Last 2 Weeks

Now
82 °F

Passing clouds.


Feels Like: 84 °F
Forecast: 72 / 89 °F
Wind: 8 mph from West

Location: Rostov-Na-Donu

Current Time: Jun 28, 2016 at 7:52:13 PM

Latest Report: Jun 28, 2016 at 7:00 PM


Visibility: N/A

Pressure: 29.62 "Hg

Humidity: 55%

Dew Point: 64 °F

Location of Rostov-on-DonLocation

Past Weather in Rostov-on-Don — Graph

°F

Rostov-on-Don Temperature Yesterday

Maximum temperature yesterday: 93 °F (at 4:30 PM)
Minimum temperature yesterday: 70 °F (at 3:30 AM)
Average temperature yesterday: 82 °F

High & Low Weather Summary for the Past Weeks

 TemperatureHumidityPressure
High93 °F (Jun 21, 3:00 PM)94% (Jun 17, 3:00 AM)30.18 "Hg (Jun 17, 3:00 AM)
Low61 °F (Jun 14, 3:00 AM)28% (Jun 28, 2:00 PM)29.62 "Hg (Jun 28, 4:30 PM)
Average79 °F56%29.98 "Hg
* Reported Jun 13 6:00 PM — Jun 28 6:00 PM, Rostov-on-Don, Weather by CustomWeather, © 2016

Note: Actual official high and low records may vary slightly from our data, if they occured in-between our weather recording intervals... More about our weather records

Advertising

Rostov-on-Don Weather History for the Previous 24 Hours

Scroll right to see more
 ConditionsComfort  
Time TempWeatherWind HumidityBarometerVisibility
6:00 PM
Tue, Jun 28
88 °FPassing clouds.3 mph46%29.62 "HgN/A
5:30 PM90 °FPassing clouds.6 mph36%29.62 "HgN/A
5:00 PM91 °FPassing clouds.3 mph32%29.62 "HgN/A
4:30 PM93 °FPassing clouds.6 mph32%29.62 "HgN/A
4:00 PM93 °FPassing clouds.6 mph30%29.65 "HgN/A
3:30 PM91 °FPassing clouds.6 mph32%29.65 "HgN/A
3:00 PM91 °FPassing clouds.8 mph30%29.65 "HgN/A
2:30 PM93 °FPassing clouds.8 mph30%29.65 "HgN/A
2:00 PM93 °FPassing clouds.10 mph28%29.65 "HgN/A
1:30 PM93 °FPassing clouds.8 mph30%29.68 "HgN/A
1:00 PM91 °FPassing clouds.8 mph34%29.68 "HgN/A
12:30 PM91 °FPassing clouds.8 mph32%29.68 "HgN/A
12:00 PM91 °FPassing clouds.8 mph32%29.68 "HgN/A
11:30 AM91 °FPassing clouds.8 mph36%29.68 "HgN/A
11:00 AM90 °FPassing clouds.6 mph38%29.71 "HgN/A
10:30 AM88 °FSunny.6 mph43%29.71 "Hg10 mi
10:00 AM88 °FPassing clouds.6 mph38%29.71 "HgN/A
9:30 AM86 °FPassing clouds.6 mph46%29.71 "HgN/A
9:00 AM84 °FPassing clouds.6 mph51%29.71 "HgN/A
8:30 AM82 °FPassing clouds.6 mph51%29.71 "HgN/A
8:00 AM81 °FSunny.6 mph54%29.71 "Hg10 mi
7:30 AM81 °FSunny.6 mph54%29.71 "Hg10 mi
7:00 AM79 °FSunny.6 mph54%29.71 "Hg10 mi
6:30 AM77 °FSunny.6 mph57%29.71 "Hg10 mi
6:00 AM77 °FSunny.6 mph57%29.71 "Hg10 mi
5:30 AM75 °FSunny.6 mph57%29.71 "Hg10 mi
5:00 AM75 °FSunny.10 mph54%29.71 "Hg10 mi
4:30 AM75 °FSunny.10 mph54%29.71 "Hg10 mi
4:00 AM73 °FClear.8 mph57%29.71 "Hg5 mi
3:30 AM73 °FClear.8 mph57%29.71 "Hg5 mi
3:00 AM75 °FClear.8 mph54%29.71 "Hg5 mi
2:30 AM75 °FClear.8 mph54%29.71 "Hg5 mi
2:00 AM75 °FClear.8 mph54%29.71 "Hg5 mi
1:30 AM75 °FClear.8 mph54%29.71 "Hg5 mi
1:00 AM75 °FClear.6 mph54%29.71 "Hg5 mi
12:30 AM77 °FClear.8 mph51%29.74 "Hg5 mi
12:00 AM79 °FClear.8 mph48%29.74 "Hg5 mi
11:30 PM
Mon, Jun 27
77 °FClear.6 mph51%29.74 "Hg5 mi
11:00 PM77 °FClear.6 mph51%29.74 "Hg5 mi
10:30 PM81 °FClear.8 mph45%29.74 "Hg5 mi
10:00 PM81 °FClear.10 mph45%29.74 "Hg5 mi
9:00 PM79 °FClear.6 mph51%29.74 "Hg5 mi
8:30 PM86 °FClear.6 mph38%29.74 "Hg5 mi
8:00 PM88 °FSunny.6 mph38%29.74 "Hg10 mi
7:30 PM88 °FSunny.8 mph38%29.74 "Hg10 mi
7:00 PM88 °FSunny.8 mph40%29.74 "Hg10 mi
Weather by CustomWeather, © 2016

See weather overviewHow to use our weather pages